カタログに戻る

KUIPER-00218

運用中通信LEO
NORAD 67780·PAYLOAD·🇺🇸 United States

打ち上げ Feb 12, 2026 から Vandenberg Space Force Base

Loading…

次のパス (今後24時間)

TLE

最新Source: CelesTrak SupGP

元期: Sep 14, 2026, 14:45 UTC

1 67780C 26030S   26257.61487269 -.00002757  00000+0 -36094-3 0  2578
2 67780  51.8963  90.1592 0000788 107.4928 106.9393 14.79931219    10

AllMySatでKUIPER-00218をリアルタイム追跡

Download on the App Store